Timeline UpdatesTrip UpdatesNews PostsPvt PostsTravel TipsAdmin PostsConv PostsFollowed PostsChat RequestsBlog PostsPNR Posts

Disclaimer
Search
 
 
Wed Sep 3, 2014 05:18:53 ISTHomeTrainsΣChainsAtlasPNRForumGalleryNewsFAQTripsMembersLoginFeedback
No Recent News for this Train
Other Trains in the News **new
Latest...
★KR ♥ Lover ♥ Forever★ Entry# 707524 first 3 GS are of Milatry. Its full with police
Thu Mar 28, 2013 (10:36PM)
⇐ Return Journey: Train# 51154

51153/Mumbai-Bhusaval Passenger (UnReserved)

OLD Time-Table. Click here to UPDATE TT
Sep 11 2013 (11:12PM)
Change Departure Station:
Change Arrival Station:
Post a Train Travel TipPost a Train Travel Tip **new
Post a Comment/Question/Picture/VideoPost a Comment/Question/Picture/Video
Pantry/Catering
✕ NO Pantry Car
✕ NO Catering
RSA - Rake Sharing
No RSA.
Rake/Coach Composition
Entry# 145371 Author: ® राहुल कुमार जैन ; Engine, SLR, GS, GS, GS, GS, GS, GS, GS, GS, GS, GS, GS, GS, SLR= 14 coach
Loco
CSTM-IGP : WCAM-3 KYN, IGP-BSL : WAP-4 BSL.
News    PNR    Forum    Time-Table    Availability    Fare Chart    Map    Arr/Dep History    Trips    Gallery    ΣChains    X/O    Timeline    
Travel Time: 12h 40m    49 halts    Distance: 443 km    Avg Speed: 34 km/hr
Type: Passenger
Zone: CR/Central
Departs @ 05:20
Platform# ???
SMTWTFS
Mumbai CST/CSTM 
Arrives @ 18:00
Platform# 1
SMTWTFS
Bhusaval Junction/BSL 

49 halts. 75 intermediate Stations between Mumbai CST and Bhusaval Junction

Show ALL intermediate Stations  

#CodeStation NameX/OArrivesAvgDepartsAvgHaltPFDay#KmSpeedElevZoneAddress
1CSTM»Mumbai CST (18)»  -05:20---10.010410mCRMumbai 400001, Maharashtra
2DRMumbai Dadar Central (8)  05:25-05:30-5m418.6547mCRMumbai 400014, Maharashtra
3TNAThane (10)X  05:57-06:00-3m5132.96110mCRThane (West) 400602, Maharashtra
4KYNKalyan Junction (8)X  06:20-06:25-5m4153.11610mCRKalyan 421301, Maharashtra
5SHADShahad (2)  06:37-06:38-1m1156.34512mCRUlhasnagar, Maharashtra
6ABYAmbivli (2)  06:42-06:43-1m1159.35822mCRAmbivli, Maharashtra
7TLATitwala (3)X  06:48-06:49-1m--164.14517mCRTitwala, Maharashtra
8KDVKhadavli (3)XO  06:59-07:00-1m--171.7823mCRKhadavli, Maharashtra
9VSDVasind (2)  08:00-08:01-1m--179.36032mCRVasind, Maharashtra
10ASOAsangaon (3)X  08:07-08:08-1m--185.35377mCRDist. Thane, Maharashtra
11ATGAtgaon (2)  08:19-08:20-1m--195.159147mCRAtgaon, Maharashtra
12THSThansit  08:26-08:27-1m--1101.046184mCRNational Highway 3, Maharashtra
13KEKhardi (2)X  08:35-08:36-1m--1107.298232mCRKhardi, Maharashtra
14OMBOombermaliX  08:40-08:41-1m--1113.737248mCROombermali, Maharashtra
15KSRAKasara (4)X  08:52-08:53-1m11120.521290mCRDist. Thane 421602, Maharashtra
16IGPIgatpuri (4)XO  09:35-09:40-5m11134.918589mCRIgatpuri 422403, Maharashtra
17GOGhoti (2)X  10:07-10:08-1m--1143.084581mCRGhoti, Maharashtra
18PIPadli (1)X  10:14-10:15-1m11151.385591mCRNational Highway 3, Maharashtra
19AVAsvali (2)X  10:21-10:23-2m--1159.893578mCRAsvali, Maharashtra
20LTLahavit (1)  10:31-10:32-1m11172.245587mCRWadhiware, Maharashtra
21DVLDevlali (3)  10:42-10:43-1m11179.8-561mCRDist. Nashik 422401, Maharashtra
22NKNasik Road (3)X  10:45-10:50-5m11185.632563mCRNashik 422101, Maharashtra
23ODHAOdha (2)  11:12-11:13-1m11197.253571mCRDist. Nashik, Maharashtra
24KWKhervadi (2)  11:21-11:22-1m11204.251553mCRKherwadi, Maharashtra
25KBSNKasbe Sukene (3)  11:30-11:31-1m--1210.945548mCRKasbe Sukene, Maharashtra
26NRNiphad (3)  11:39-11:40-1m11216.952550mCRNashik, Maharashtra
27UGNUgaon (2)X  11:48-11:49-1m11223.959568mCRUgaon, Maharashtra
28LSLasalgaon (3)O  11:59-12:00-1m--1233.856592mCRLasalgaon, Maharashtra
29SUMSummit (2)XO  12:13-12:14-1m11245.913632mCRSummit, Maharashtra
30MMRManmad Junction (6)  13:10-13:15-5m21258.338580mCRManmad 423104, Maharashtra
31PNVPanevadi (2)  13:24-13:25-1m--1264.066561mCRPanevadi, Maharashtra
32HSLHisvahal (2)  13:32-13:33-1m--1271.855540mCRHisvahal, Maharashtra
33PJNPanjhan (2)X  13:39-13:40-1m--1277.243514mCRPanjhan, Maharashtra
34NGNNandgaon (3)X  13:49-13:50-1m--1283.781476mCRNandgaon, Maharashtra
35PKEPimpar Khed (2)  13:58-13:59-1m--1294.565462mCRPimpar Khed, Maharashtra
36NINaydongri (2)  14:08-14:09-1m--1304.356427mCRNaydongri, Maharashtra
37RHNERohini (2)  14:14-14:15-1m--1309.090422mCRRohini, Maharashtra
38HPRHirapur (2)X  14:21-14:22-1m--1318.059373mCRHirapur, Maharashtra
39CSNChalisgaon Junction (3)X  14:30-14:35-5m--1325.870352mCRChalisgaon 424101, Maharashtra
40VGLVaghli (2)  14:43-14:44-1m--1335.2117331mCRVaghli, Maharashtra
41KJKajgaon (3)X  14:49-14:51-2m--1344.968297mCRKajgaon, Maharashtra
42NGDNagardevla (2)X  14:57-14:58-1m--1351.872280mCRNagardevla, Maharashtra
43GAAGalan (2)X  15:05-15:06-1m--1360.257282mCRGalan, Maharashtra
44PCPachora Junction (4)  15:17-15:18-1m--1370.789264mCRPachora 424201, Maharashtra
45PHQPardhande (2)X  15:23-15:24-1m--1378.163243mCRPardhande, Maharashtra
46MYJMaheji (2)X  15:31-15:32-1m--1385.579247mCRJalgaon, Maharashtra
47MWDMhasavad (3)O  15:41-15:42-1m--1397.311220mCRMhasavad, Maharashtra
48SSShirsoli (2)  16:33-16:34-1m--1406.664211mCRShirsoli, Maharashtra
49JLJalgaon Junction (4)X  16:45-16:50-5m31418.420213mCRJalgaon 425001, Maharashtra
50BDIBhadli (2)  17:24-17:25-1m--1429.922211mCRBhadli, Maharashtra
51BSL•Bhusaval Junction (8)•  18:00--11442.5-208mCRBhusaval 425201, Maharashtra
Scroll to Top
Scroll to Bottom